Location: Newton_East
(35.6670°N, 81.2000°W)
Time: 08:55:08
(UTC-04:00)

ISS - Visible Passes

Search period start: 24 July 2016 00:00
Search period end: 03 August 2016 00:00
Orbit: 401 x 404 km, 51.6° (Epoch: 24 July)

Date Brightness Start Highest point End Pass type
(mag) Time Alt. Az. Time Alt. Az. Time Alt. Az.
24 Jul -0.2 05:01:22 10° NNW 05:03:28 16° NNE 05:05:34 10° ENE visible
25 Jul 0.3 04:09:36 10° N 04:10:16 10° NNE 04:10:56 10° NE visible
25 Jul -2.7 05:44:02 10° NW 05:47:16 60° NE 05:50:28 10° ESE visible
25 Jul -3.4 22:21:08 10° SW 22:24:22 83° NW 22:25:57 28° NE visible
26 Jul0.300:05:24NNE00:05:24NNE23:59:03WNWvisible
26 Jul -1.3 04:51:20 10° NNW 04:54:16 30° NE 04:57:11 10° E visible
26 Jul -3.0 21:28:25 10° SSW 21:31:31 42° SE 21:34:37 10° ENE visible
26 Jul -0.5 23:05:41 10° WNW 23:08:05 19° NNW 23:10:30 10° NNE visible
27 Jul -0.4 03:58:51 10° NNW 04:01:11 18° NNE 04:03:30 10° ENE visible
27 Jul -3.1 05:34:37 10° WNW 05:37:47 47° SW 05:40:55 10° SSE visible
27 Jul -1.4 22:12:02 10° WSW 22:15:00 32° NW 22:17:59 10° NNE visible
28 Jul 0.2 03:08:09 12° NNE 03:08:09 12° NNE 03:09:14 10° NE visible
28 Jul -3.3 04:41:39 10° NW 04:44:54 75° NE 04:48:08 10° SE visible
28 Jul -2.9 21:18:47 10° SW 21:22:00 66° NW 21:25:15 10° NE visible
28 Jul 0.2 22:58:01 10° NW 22:58:58 11° NNW 22:59:55 10° N visible
29 Jul -1.2 05:29:48 13° SSW 05:29:48 13° SSW 05:30:24 10° S visible
29 Jul -0.2 22:03:34 10° WNW 22:05:46 17° NNW 22:07:57 10° NNE visible
30 Jul -1.0 21:09:48 10° W 21:12:38 27° NW 21:15:30 10° NNE visible
01 Aug -0.3 21:01:29 10° WNW 21:03:25 15° NNW 21:05:21 10° N visible
